| time (UTC) | temp F | wind direction | speed MPH | gust MPH | rain 1hr in | rain 24hr in | rain mn in | humidity % | barometer mb |
| 20260903143538 | 74 | 259 | 1.0 | 4.0 | 0.02 | 0.06 | 0.03 | 92 | 1046.6 |
| 20260903143027 | 75 | 216 | 2.0 | 6.0 | 0.00 | 0.04 | 0.01 | 92 | 1046.6 |
| 20260903142747 | 75 | 261 | 2.0 | 6.0 | 0.00 | 0.04 | 0.00 | 91 | 1046.6 |
| 20260903142018 | 75 | 206 | 2.0 | 6.0 | 0.00 | 0.04 | 0.00 | 91 | 1046.6 |
| 20260903141736 | 75 | 266 | 1.0 | 4.0 | 0.00 | 0.04 | 0.00 | 91 | 1046.6 |
| 20260903141224 | 75 | 263 | 0.0 | 2.0 | 0.00 | 0.04 | 0.00 | 91 | 1046.6 |
| 20260903140500 | 75 | 229 | 0.0 | 2.0 | 0.00 | 0.04 | 0.00 | 92 | 1047.1 |
| 20260903135954 | 75 | 240 | 0.0 | 2.0 | 0.00 | 0.04 | 0.00 | 92 | 1047.1 |
| 20260903135448 | 74 | 221 | 0.0 | 2.0 | 0.00 | 0.04 | 0.00 | 92 | 1047.1 |
| 20260903134942 | 74 | 269 | 1.0 | 3.0 | 0.00 | 0.04 | 0.00 | 92 | 1046.6 |
| 20260903134432 | 74 | 233 | 1.0 | 4.0 | 0.00 | 0.04 | 0.00 | 92 | 1046.6 |
| 20260903133930 | 74 | 254 | 1.0 | 4.0 | 0.00 | 0.04 | 0.00 | 92 | 1046.6 |
| 20260903133424 | 74 | 152 | 0.0 | 3.0 | 0.00 | 0.04 | 0.00 | 94 | 1046.8 |
| 20260903132918 | 73 | 247 | 1.0 | 2.0 | 0.00 | 0.04 | 0.00 | 94 | 1046.8 |
| 20260903132412 | 73 | 131 | 1.0 | 3.0 | 0.00 | 0.04 | 0.00 | 94 | 1046.8 |
| 20260903131905 | 73 | 273 | 0.0 | 3.0 | 0.00 | 0.04 | 0.00 | 93 | 1046.8 |
| 20260903131625 | 73 | 178 | 0.0 | 0.0 | 0.00 | 0.04 | 0.00 | 94 | 1046.8 |
| 20260903130850 | 73 | 160 | 0.0 | 2.0 | 0.00 | 0.04 | 0.00 | 94 | 1046.8 |
| 20260903130349 | 73 | 161 | 0.0 | 2.0 | 0.00 | 0.04 | 0.00 | 94 | 1047.1 |
| 20260903125842 | 73 | 171 | 0.0 | 2.0 | 0.00 | 0.04 | 0.00 | 95 | 1047.1 |
| 20260903125336 | 73 | 234 | 0.0 | 1.0 | 0.00 | 0.04 | 0.00 | 95 | 1047.1 |
| 20260903124829 | 73 | 257 | 0.0 | 0.0 | 0.00 | 0.04 | 0.00 | 95 | 1047.1 |
| 20260903124324 | 72 | 257 | 0.0 | 1.0 | 0.00 | 0.04 | 0.00 | 95 | 1047.1 |
| 20260903123818 | 72 | 153 | 0.0 | 1.0 | 0.00 | 0.04 | 0.00 | 96 | 1047.1 |
| 20260903123308 | 72 | 150 | 0.0 | 0.0 | 0.00 | 0.04 | 0.00 | 96 | 1047.1 |
| 20260903123022 | 72 | 149 | 0.0 | 0.0 | 0.00 | 0.04 | 0.00 | 96 | 1047.1 |
| 20260903122254 | 72 | 149 | 0.0 | 0.0 | 0.00 | 0.04 | 0.00 | 96 | 1047.7 |
| 20260903121750 | 71 | 148 | 0.0 | 2.0 | 0.00 | 0.04 | 0.00 | 96 | 1047.7 |
| 20260903121249 | 71 | 148 | 0.0 | 2.0 | 0.00 | 0.04 | 0.00 | 96 | 1047.7 |
| 20260903120749 | 71 | 253 | 0.0 | 1.0 | 0.00 | 0.04 | 0.00 | 96 | 1047.3 |
| 20260903120250 | 71 | 261 | 0.0 | 1.0 | 0.00 | 0.04 | 0.00 | 97 | 1047.3 |
| 20260903115750 | 71 | 321 | 0.0 | 2.0 | 0.00 | 0.04 | 0.00 | 97 | 1047.3 |
| 20260903115249 | 71 | 16 | 0.0 | 2.0 | 0.00 | 0.04 | 0.00 | 97 | 1047.4 |
| 20260903114749 | 71 | 254 | 0.0 | 0.0 | 0.00 | 0.04 | 0.00 | 97 | 1047.4 |
| 20260903114250 | 71 | 254 | 0.0 | 0.0 | 0.00 | 0.04 | 0.00 | 97 | 1047.4 |
| 20260903113750 | 71 | 184 | 0.0 | 0.0 | 0.00 | 0.04 | 0.00 | 97 | 1047.6 |
| 20260903113245 | 71 | 183 | 0.0 | 1.0 | 0.00 | 0.04 | 0.00 | 97 | 1047.6 |
| 20260903112732 | 71 | 205 | 0.0 | 1.0 | 0.00 | 0.04 | 0.00 | 97 | 1047.6 |
| 20260903112219 | 71 | 30 | 0.0 | 1.0 | 0.00 | 0.04 | 0.00 | 97 | 1047.1 |
| 20260903111708 | 71 | 113 | 0.0 | 0.0 | 0.00 | 0.04 | 0.00 | 97 | 1047.1 |
| 20260903111155 | 71 | 317 | 0.0 | 0.0 | 0.00 | 0.04 | 0.00 | 97 | 1047.1 |
| 20260903110649 | 70 | 317 | 0.0 | 1.0 | 0.00 | 0.04 | 0.00 | 97 | 1046.8 |
| 20260903110149 | 70 | 323 | 0.0 | 2.0 | 0.00 | 0.04 | 0.00 | 97 | 1046.8 |
| 20260903105908 | 71 | 324 | 1.0 | 5.0 | 0.00 | 0.04 | 0.00 | 97 | 1046.8 |
| 20260903105150 | 71 | 297 | 1.0 | 5.0 | 0.00 | 0.04 | 0.00 | 97 | 1047.0 |
| 20260903104649 | 71 | 90 | 1.0 | 7.0 | 0.00 | 0.04 | 0.00 | 97 | 1047.0 |
| 20260903104150 | 70 | 338 | 2.0 | 7.0 | 0.00 | 0.04 | 0.00 | 98 | 1047.0 |
| 20260903103649 | 70 | 176 | 2.0 | 7.0 | 0.00 | 0.04 | 0.00 | 98 | 1046.6 |
| 20260903103149 | 70 | 219 | 1.0 | 5.0 | 0.00 | 0.04 | 0.00 | 98 | 1046.6 |
| 20260903102647 | 70 | 121 | 1.0 | 4.0 | 0.00 | 0.04 | 0.00 | 98 | 1046.6 |
| 20260903102143 | 70 | 30 | 1.0 | 3.0 | 0.00 | 0.04 | 0.00 | 98 | 1046.0 |
| 20260903101637 | 70 | 242 | 0.0 | 3.0 | 0.00 | 0.04 | 0.00 | 98 | 1046.0 |
| 20260903101355 | 70 | 298 | 0.0 | 2.0 | 0.00 | 0.04 | 0.00 | 98 | 1046.0 |
| 20260903100620 | 70 | 254 | 0.0 | 3.0 | 0.00 | 0.04 | 0.00 | 98 | 1045.6 |
| 20260903100120 | 70 | 12 | 0.0 | 3.0 | 0.00 | 0.04 | 0.00 | 98 | 1045.6 |
| 20260903095614 | 70 | 134 | 0.0 | 2.0 | 0.00 | 0.05 | 0.00 | 98 | 1045.6 |
| 20260903095107 | 70 | 133 | 0.0 | 3.0 | 0.00 | 0.05 | 0.00 | 98 | 1045.4 |
| 20260903094601 | 70 | 121 | 0.0 | 3.0 | 0.00 | 0.05 | 0.00 | 98 | 1045.4 |
| 20260903094319 | 70 | 94 | 0.0 | 2.0 | 0.00 | 0.05 | 0.00 | 98 | 1045.4 |
| 20260903093548 | 70 | 81 | 0.0 | 2.0 | 0.00 | 0.05 | 0.00 | 98 | 1045.2 |
| 20260903093041 | 70 | 265 | 0.0 | 2.0 | 0.00 | 0.05 | 0.00 | 98 | 1045.2 |
| 20260903092535 | 70 | 248 | 0.0 | 5.0 | 0.00 | 0.05 | 0.00 | 98 | 1045.2 |
| 20260903092024 | 70 | 97 | 0.0 | 5.0 | 0.00 | 0.05 | 0.00 | 98 | 1045.0 |
| 20260903091524 | 70 | 107 | 1.0 | 5.0 | 0.00 | 0.05 | 0.00 | 98 | 1045.0 |
| 20260903091017 | 70 | 132 | 2.0 | 6.0 | 0.00 | 0.05 | 0.00 | 98 | 1045.0 |
| 20260903090512 | 70 | 113 | 2.0 | 6.0 | 0.00 | 0.05 | 0.00 | 98 | 1045.0 |
| 20260903090005 | 70 | 119 | 0.0 | 5.0 | 0.00 | 0.05 | 0.00 | 98 | 1045.0 |
| 20260903085500 | 70 | 114 | 0.0 | 0.0 | 0.00 | 0.05 | 0.00 | 98 | 1045.0 |
| 20260903084953 | 70 | 116 | 0.0 | 0.0 | 0.00 | 0.05 | 0.00 | 98 | 1045.0 |
| 20260903084702 | 70 | 117 | 0.0 | 0.0 | 0.00 | 0.05 | 0.00 | 98 | 1045.0 |
| 20260903083941 | 70 | 154 | 0.0 | 0.0 | 0.00 | 0.05 | 0.00 | 98 | 1045.0 |
| 20260903083519 | 70 | 153 | 0.0 | 0.0 | 0.00 | 0.05 | 0.00 | 98 | 1044.9 |
| 20260903082905 | 70 | 157 | 0.0 | 0.0 | 0.00 | 0.05 | 0.00 | 98 | 1044.9 |
| 20260903081917 | 70 | 157 | 0.0 | 0.0 | 0.00 | 0.05 | 0.00 | 98 | 1044.9 |
| 20260903081411 | 70 | 157 | 0.0 | 2.0 | 0.00 | 0.05 | 0.00 | 98 | 1044.9 |
| 20260903081128 | 70 | 162 | 0.0 | 2.0 | 0.00 | 0.05 | 0.00 | 98 | 1044.9 |
| 20260903080359 | 70 | 11 | 0.0 | 1.0 | 0.00 | 0.05 | 0.00 | 98 | 1044.8 |
| 20260903075848 | 70 | 335 | 0.0 | 1.0 | 0.00 | 0.05 | 0.00 | 98 | 1044.8 |
| 20260903075347 | 70 | 246 | 0.0 | 0.0 | 0.00 | 0.05 | 0.00 | 98 | 1044.6 |
| 20260903074841 | 70 | 246 | 0.0 | 0.0 | 0.00 | 0.05 | 0.00 | 98 | 1044.6 |
| 20260903074603 | 70 | 246 | 0.0 | 0.0 | 0.00 | 0.05 | 0.00 | 98 | 1044.6 |
| 20260903074050 | 70 | 246 | 0.0 | 0.0 | 0.00 | 0.05 | 0.00 | 98 | 1044.5 |
| 20260903073319 | 70 | 246 | 0.0 | 0.0 | 0.00 | 0.05 | 0.00 | 98 | 1044.5 |
| 20260903072817 | 70 | 246 | 0.0 | 0.0 | 0.00 | 0.05 | 0.00 | 99 | 1044.5 |
| 20260903072533 | 70 | 246 | 0.0 | 0.0 | 0.00 | 0.05 | 0.00 | 98 | 1044.6 |
| 20260903071805 | 69 | 246 | 0.0 | 0.0 | 0.00 | 0.05 | 0.00 | 97 | 1044.6 |
| 20260903071259 | 70 | 246 | 0.0 | 0.0 | 0.00 | 0.05 | 0.00 | 97 | 1044.6 |
| 20260903070753 | 70 | 246 | 0.0 | 0.0 | 0.00 | 0.05 | 0.00 | 97 | 1044.6 |
| 20260903070247 | 70 | 246 | 0.0 | 0.0 | 0.00 | 0.05 | 0.00 | 97 | 1044.6 |
| 20260903065736 | 70 | 246 | 0.0 | 0.0 | 0.00 | 0.05 | 0.00 | 97 | 1044.6 |
| 20260903065235 | 70 | 246 | 0.0 | 0.0 | 0.00 | 0.05 | 0.00 | 97 | 1044.6 |
| 20260903065211 | 70 | 246 | 0.0 | 0.0 | 0.00 | 0.05 | 0.00 | 97 | 1044.6 |
| 20260903064450 | 70 | 246 | 0.0 | 0.0 | 0.00 | 0.05 | 0.00 | 97 | 1044.6 |
| 20260903063717 | 70 | 246 | 0.0 | 0.0 | 0.00 | 0.05 | 0.00 | 98 | 1044.5 |
| 20260903063211 | 70 | 246 | 0.0 | 0.0 | 0.00 | 0.05 | 0.00 | 98 | 1044.5 |
| 20260903062705 | 70 | 246 | 0.0 | 0.0 | 0.00 | 0.05 | 0.00 | 97 | 1044.5 |
| 20260903062154 | 70 | 246 | 0.0 | 0.0 | 0.00 | 0.05 | 0.00 | 97 | 1044.5 |
| 20260903061916 | 70 | 246 | 0.0 | 0.0 | 0.00 | 0.05 | 0.00 | 97 | 1044.5 |
| 20260903061147 | 70 | 246 | 0.0 | 0.0 | 0.00 | 0.05 | 0.00 | 96 | 1044.5 |
| 20260903060900 | 70 | 246 | 0.0 | 0.0 | 0.00 | 0.05 | 0.00 | 96 | 1044.6 |
| 20260903060135 | 70 | 246 | 0.0 | 0.0 | 0.00 | 0.05 | 0.00 | 96 | 1044.6 |
| 20260903055629 | 70 | 246 | 0.0 | 0.0 | 0.00 | 0.05 | 0.00 | 96 | 1044.6 |
| 20260903055123 | 71 | 246 | 0.0 | 0.0 | 0.00 | 0.05 | 0.00 | 96 | 1044.9 |
| 20260903054614 | 71 | 246 | 0.0 | 0.0 | 0.00 | 0.05 | 0.00 | 95 | 1044.9 |
| 20260903054111 | 71 | 246 | 0.0 | 0.0 | 0.00 | 0.05 | 0.00 | 95 | 1044.9 |
| 20260903053604 | 71 | 246 | 0.0 | 0.0 | 0.00 | 0.05 | 0.00 | 95 | 1045.0 |
| 20260903053059 | 71 | 246 | 0.0 | 0.0 | 0.00 | 0.05 | 0.00 | 95 | 1045.0 |
| 20260903052816 | 71 | 246 | 0.0 | 0.0 | 0.00 | 0.05 | 0.00 | 95 | 1045.0 |
| 20260903052047 | 72 | 246 | 0.0 | 0.0 | 0.00 | 0.05 | 0.00 | 95 | 1045.0 |
| 20260903051540 | 72 | 246 | 0.0 | 0.0 | 0.00 | 0.05 | 0.00 | 95 | 1045.0 |
| 20260903051515 | 72 | 246 | 0.0 | 0.0 | 0.00 | 0.05 | 0.00 | 95 | 1045.0 |
| 20260903050751 | 72 | 246 | 0.0 | 0.0 | 0.00 | 0.05 | 0.00 | 95 | 1045.1 |
| 20260903050022 | 72 | 246 | 0.0 | 0.0 | 0.00 | 0.05 | 0.00 | 95 | 1045.1 |
| 20260903045516 | 72 | 246 | 0.0 | 0.0 | 0.00 | 0.05 | 0.00 | 95 | 1045.1 |
| 20260903045010 | 72 | 246 | 0.0 | 0.0 | 0.00 | 0.05 | 0.00 | 95 | 1045.1 |
| 20260903044504 | 72 | 246 | 0.0 | 0.0 | 0.00 | 0.05 | 0.00 | 95 | 1045.1 |
| 20260903043959 | 72 | 246 | 0.0 | 0.0 | 0.00 | 0.05 | 0.00 | 95 | 1045.1 |
| 20260903043449 | 72 | 246 | 0.0 | 0.0 | 0.00 | 0.05 | 0.00 | 95 | 1045.5 |
| 20260903042947 | 72 | 246 | 0.0 | 0.0 | 0.00 | 0.05 | 0.00 | 95 | 1045.5 |
| 20260903042707 | 72 | 246 | 0.0 | 0.0 | 0.00 | 0.05 | 0.00 | 95 | 1045.5 |
| 20260903042412 | 72 | 246 | 0.0 | 0.0 | 0.00 | 0.05 | 0.00 | 95 | 1045.5 |
| 20260903041429 | 72 | 246 | 0.0 | 0.0 | 0.00 | 0.05 | 0.00 | 95 | 1045.5 |
| 20260903040923 | 73 | 246 | 0.0 | 0.0 | 0.00 | 0.05 | 0.00 | 95 | 1045.5 |
| 20260903040643 | 73 | 246 | 0.0 | 0.0 | 0.00 | 0.05 | 0.00 | 95 | 1045.4 |
| 20260903035906 | 73 | 246 | 0.0 | 0.0 | 0.00 | 0.05 | 0.05 | 95 | 1045.4 |
| 20260903035405 | 72 | 246 | 0.0 | 0.0 | 0.00 | 0.05 | 0.05 | 96 | 1045.4 |
| 20260903034858 | 72 | 186 | 0.0 | 0.0 | 0.00 | 0.05 | 0.05 | 96 | 1045.3 |
| 20260903034353 | 72 | 187 | 0.0 | 0.0 | 0.00 | 0.05 | 0.05 | 96 | 1045.3 |
| 20260903034328 | 72 | 187 | 0.0 | 0.0 | 0.00 | 0.05 | 0.05 | 96 | 1045.3 |
| 20260903033341 | 71 | 187 | 0.0 | 0.0 | 0.00 | 0.05 | 0.05 | 96 | 1045.3 |
| 20260903032833 | 71 | 141 | 0.0 | 0.0 | 0.00 | 0.05 | 0.05 | 96 | 1045.3 |
| 20260903032333 | 71 | 141 | 0.0 | 0.0 | 0.00 | 0.05 | 0.05 | 96 | 1045.3 |
| 20260903032311 | 71 | 141 | 0.0 | 0.0 | 0.00 | 0.05 | 0.05 | 96 | 1045.3 |
| 20260903031330 | 71 | 141 | 0.0 | 0.0 | 0.00 | 0.05 | 0.05 | 96 | 1045.3 |
| 20260903030831 | 71 | 141 | 0.0 | 0.0 | 0.00 | 0.05 | 0.05 | 96 | 1045.4 |
| 20260903030332 | 71 | 141 | 0.0 | 0.0 | 0.00 | 0.05 | 0.05 | 96 | 1045.4 |
| 20260903025830 | 71 | 141 | 0.0 | 0.0 | 0.00 | 0.05 | 0.05 | 96 | 1045.4 |
| 20260903025332 | 71 | 142 | 0.0 | 0.0 | 0.00 | 0.05 | 0.05 | 95 | 1045.1 |
| 20260903024831 | 71 | 142 | 0.0 | 0.0 | 0.00 | 0.05 | 0.05 | 95 | 1045.1 |
| 20260903024331 | 71 | 142 | 0.0 | 0.0 | 0.00 | 0.05 | 0.05 | 95 | 1045.1 |
| 20260903023824 | 71 | 142 | 0.0 | 0.0 | 0.00 | 0.05 | 0.05 | 94 | 1045.2 |
| 20260903023315 | 71 | 142 | 0.0 | 0.0 | 0.00 | 0.05 | 0.05 | 95 | 1045.2 |
| 20260903022814 | 71 | 142 | 0.0 | 0.0 | 0.00 | 0.05 | 0.05 | 95 | 1045.2 |
| 20260903022315 | 71 | 142 | 0.0 | 0.0 | 0.00 | 0.05 | 0.05 | 94 | 1045.1 |
| 20260903021815 | 72 | 142 | 0.0 | 0.0 | 0.00 | 0.05 | 0.05 | 94 | 1045.1 |
| 20260903021315 | 72 | 142 | 0.0 | 0.0 | 0.00 | 0.05 | 0.05 | 94 | 1045.1 |
| 20260903020814 | 72 | 142 | 0.0 | 0.0 | 0.00 | 0.05 | 0.05 | 94 | 1045.1 |
| 20260903020757 | 72 | 142 | 0.0 | 0.0 | 0.00 | 0.05 | 0.05 | 94 | 1045.1 |
| 20260903015814 | 72 | 142 | 0.0 | 0.0 | 0.00 | 0.05 | 0.05 | 94 | 1045.1 |
| 20260903015316 | 72 | 142 | 0.0 | 0.0 | 0.00 | 0.05 | 0.05 | 93 | 1045.4 |
| 20260903014809 | 73 | 142 | 0.0 | 0.0 | 0.00 | 0.05 | 0.05 | 93 | 1045.4 |
| 20260903014256 | 73 | 142 | 0.0 | 0.0 | 0.00 | 0.05 | 0.05 | 93 | 1045.4 |
| 20260903014013 | 73 | 142 | 0.0 | 0.0 | 0.00 | 0.05 | 0.05 | 93 | 1045.5 |
| 20260903013234 | 73 | 142 | 0.0 | 0.0 | 0.00 | 0.05 | 0.05 | 93 | 1045.5 |
| 20260903012726 | 74 | 142 | 0.0 | 0.0 | 0.00 | 0.05 | 0.05 | 92 | 1045.5 |
| 20260903012221 | 74 | 142 | 0.0 | 0.0 | 0.00 | 0.05 | 0.05 | 92 | 1045.1 |
| 20260903011714 | 74 | 142 | 0.0 | 0.0 | 0.00 | 0.05 | 0.05 | 92 | 1045.1 |
| 20260903011209 | 74 | 142 | 0.0 | 0.0 | 0.00 | 0.05 | 0.05 | 92 | 1045.1 |
| 20260903010702 | 74 | 142 | 0.0 | 1.0 | 0.00 | 0.05 | 0.05 | 92 | 1045.2 |
| 20260903010156 | 74 | 142 | 0.0 | 1.0 | 0.00 | 0.05 | 0.05 | 92 | 1045.2 |
| 20260903005646 | 74 | 139 | 0.0 | 1.0 | 0.00 | 0.05 | 0.05 | 92 | 1045.2 |
| 20260903005140 | 74 | 151 | 0.0 | 0.0 | 0.00 | 0.05 | 0.05 | 91 | 1045.5 |
| 20260903004638 | 74 | 92 | 0.0 | 0.0 | 0.00 | 0.05 | 0.05 | 91 | 1045.5 |
| 20260903004130 | 74 | 83 | 0.0 | 0.0 | 0.00 | 0.05 | 0.05 | 91 | 1045.5 |
| 20260903003620 | 74 | 83 | 0.0 | 0.0 | 0.00 | 0.05 | 0.05 | 90 | 1045.6 |
| 20260903003343 | 75 | 83 | 0.0 | 0.0 | 0.00 | 0.05 | 0.05 | 90 | 1045.6 |
| 20260903002613 | 75 | 83 | 0.0 | 0.0 | 0.00 | 0.05 | 0.05 | 90 | 1045.6 |
| 20260903002106 | 75 | 83 | 0.0 | 0.0 | 0.00 | 0.05 | 0.05 | 90 | 1045.8 |
| 20260903001600 | 75 | 84 | 0.0 | 0.0 | 0.00 | 0.05 | 0.05 | 89 | 1045.8 |
| 20260903001049 | 75 | 83 | 0.0 | 0.0 | 0.00 | 0.05 | 0.05 | 89 | 1045.8 |
| 20260903000549 | 76 | 84 | 0.0 | 0.0 | 0.00 | 0.05 | 0.05 | 89 | 1045.8 |
| 20260903000038 | 76 | 84 | 0.0 | 0.0 | 0.00 | 0.05 | 0.05 | 88 | 1045.8 |
| 20260902235533 | 77 | 84 | 0.0 | 0.0 | 0.00 | 0.05 | 0.05 | 87 | 1045.8 |
| 20260902235026 | 77 | 84 | 0.0 | 0.0 | 0.00 | 0.05 | 0.05 | 87 | 1046.1 |
| 20260902234521 | 77 | 83 | 0.0 | 0.0 | 0.00 | 0.05 | 0.05 | 87 | 1046.1 |
| 20260902234010 | 78 | 83 | 0.0 | 0.0 | 0.00 | 0.05 | 0.05 | 86 | 1046.1 |
| 20260902233508 | 78 | 83 | 0.0 | 0.0 | 0.00 | 0.05 | 0.05 | 86 | 1046.2 |
| 20260902233002 | 78 | 84 | 0.0 | 0.0 | 0.00 | 0.05 | 0.05 | 86 | 1046.2 |
| 20260902232456 | 78 | 84 | 0.0 | 0.0 | 0.00 | 0.05 | 0.05 | 85 | 1046.2 |
| 20260902231950 | 79 | 84 | 0.0 | 2.0 | 0.00 | 0.05 | 0.05 | 84 | 1046.0 |
| 20260902231440 | 79 | 84 | 0.0 | 2.0 | 0.00 | 0.05 | 0.05 | 84 | 1046.0 |
| 20260902230938 | 80 | 20 | 0.0 | 2.0 | 0.00 | 0.05 | 0.05 | 83 | 1046.0 |
| 20260902230432 | 80 | 143 | 0.0 | 2.0 | 0.00 | 0.05 | 0.05 | 82 | 1045.9 |
| 20260902225926 | 80 | 169 | 1.0 | 5.0 | 0.00 | 0.05 | 0.05 | 82 | 1045.9 |
| 20260902225416 | 80 | 195 | 1.0 | 5.0 | 0.00 | 0.05 | 0.05 | 82 | 1045.9 |
| 20260902224914 | 81 | 157 | 1.0 | 5.0 | 0.00 | 0.05 | 0.05 | 81 | 1046.1 |
| 20260902224407 | 81 | 153 | 2.0 | 5.0 | 0.00 | 0.05 | 0.05 | 81 | 1046.1 |
| 20260902223902 | 82 | 154 | 2.0 | 7.0 | 0.00 | 0.05 | 0.05 | 80 | 1046.1 |
| 20260902223356 | 83 | 178 | 2.0 | 7.0 | 0.00 | 0.05 | 0.05 | 79 | 1045.9 |
| 20260902222850 | 83 | 153 | 1.0 | 5.0 | 0.00 | 0.05 | 0.05 | 78 | 1045.9 |
| 20260902222340 | 83 | 126 | 1.0 | 6.0 | 0.00 | 0.05 | 0.05 | 78 | 1045.8 |
| 20260902221835 | 83 | 185 | 2.0 | 6.0 | 0.00 | 0.05 | 0.05 | 77 | 1045.8 |
| 20260902221553 | 84 | 148 | 2.0 | 5.0 | 0.00 | 0.05 | 0.05 | 75 | 1045.8 |
| 20260902220828 | 84 | 153 | 2.0 | 6.0 | 0.00 | 0.05 | 0.05 | 75 | 1045.6 |
| 20260902220320 | 85 | 136 | 2.0 | 6.0 | 0.00 | 0.05 | 0.05 | 74 | 1045.6 |
| 20260902215814 | 85 | 46 | 2.0 | 6.0 | 0.00 | 0.05 | 0.05 | 72 | 1045.6 |
| 20260902215531 | 85 | 150 | 2.0 | 6.0 | 0.00 | 0.05 | 0.05 | 72 | 1045.7 |
| 20260902214802 | 85 | 101 | 2.0 | 6.0 | 0.00 | 0.05 | 0.05 | 70 | 1045.7 |
| 20260902214256 | 85 | 145 | 1.0 | 5.0 | 0.00 | 0.05 | 0.05 | 71 | 1045.7 |
| 20260902214009 | 85 | 195 | 1.0 | 5.0 | 0.00 | 0.05 | 0.05 | 70 | 1046.0 |
| 20260902213239 | 85 | 165 | 1.0 | 5.0 | 0.00 | 0.05 | 0.05 | 72 | 1046.0 |
| 20260902212738 | 85 | 207 | 2.0 | 6.0 | 0.00 | 0.05 | 0.05 | 73 | 1046.0 |
| 20260902212229 | 85 | 217 | 2.0 | 6.0 | 0.00 | 0.05 | 0.05 | 75 | 1046.2 |
| 20260902211717 | 85 | 107 | 2.0 | 6.0 | 0.00 | 0.05 | 0.05 | 76 | 1046.2 |
| 20260902211209 | 85 | 198 | 3.0 | 6.0 | 0.00 | 0.05 | 0.05 | 75 | 1046.2 |
| 20260902210704 | 85 | 250 | 2.0 | 6.0 | 0.00 | 0.05 | 0.05 | 74 | 1046.1 |
| 20260902210158 | 85 | 123 | 2.0 | 6.0 | 0.00 | 0.05 | 0.05 | 73 | 1046.1 |
| 20260902205652 | 85 | 190 | 1.0 | 5.0 | 0.00 | 0.05 | 0.05 | 72 | 1046.1 |
| 20260902205141 | 85 | 206 | 2.0 | 6.0 | 0.00 | 0.05 | 0.05 | 73 | 1046.0 |
| 20260902204639 | 86 | 100 | 2.0 | 6.0 | 0.00 | 0.05 | 0.05 | 74 | 1046.0 |
| 20260902204355 | 86 | 185 | 2.0 | 5.0 | 0.00 | 0.05 | 0.05 | 73 | 1046.0 |
| 20260902203628 | 85 | 145 | 2.0 | 5.0 | 0.00 | 0.05 | 0.05 | 74 | 1046.0 |
| 20260902203122 | 85 | 94 | 2.0 | 5.0 | 0.00 | 0.05 | 0.05 | 74 | 1046.0 |
| 20260902202615 | 85 | 148 | 1.0 | 4.0 | 0.00 | 0.05 | 0.05 | 75 | 1046.0 |
| 20260902202109 | 85 | 207 | 1.0 | 6.0 | 0.00 | 0.05 | 0.05 | 77 | 1046.6 |
| 20260902201559 | 85 | 88 | 2.0 | 6.0 | 0.00 | 0.05 | 0.05 | 77 | 1046.6 |
| 20260902201058 | 84 | 216 | 2.0 | 6.0 | 0.00 | 0.05 | 0.05 | 78 | 1046.6 |
| 20260902200816 | 84 | 162 | 1.0 | 5.0 | 0.00 | 0.05 | 0.05 | 80 | 1046.6 |
| 20260902200041 | 83 | 235 | 1.0 | 3.0 | 0.00 | 0.05 | 0.05 | 81 | 1046.6 |
| 20260902195539 | 82 | 185 | 1.0 | 4.0 | 0.00 | 0.05 | 0.05 | 82 | 1046.6 |
| 20260902195033 | 81 | 134 | 2.0 | 6.0 | 0.00 | 0.05 | 0.05 | 82 | 1046.6 |
| 20260902194527 | 81 | 327 | 2.0 | 6.0 | 0.00 | 0.05 | 0.05 | 83 | 1046.6 |
| 20260902194016 | 81 | 180 | 2.0 | 5.0 | 0.00 | 0.05 | 0.05 | 82 | 1046.6 |
| 20260902193745 | 81 | 304 | 2.0 | 5.0 | 0.00 | 0.05 | 0.05 | 83 | 1046.2 |
| 20260902193230 | 81 | 323 | 2.0 | 5.0 | 0.01 | 0.05 | 0.05 | 82 | 1046.2 |
| 20260902192503 | 80 | 92 | 2.0 | 6.0 | 0.01 | 0.05 | 0.05 | 83 | 1046.2 |
| 20260902191957 | 80 | 112 | 1.0 | 6.0 | 0.02 | 0.05 | 0.05 | 85 | 1046.1 |
| 20260902191451 | 80 | 143 | 1.0 | 6.0 | 0.03 | 0.05 | 0.05 | 86 | 1046.1 |
| 20260902191428 | 79 | 117 | 1.0 | 6.0 | 0.03 | 0.05 | 0.05 | 90 | 1046.1 |
| 20260902190438 | 78 | 115 | 1.0 | 5.0 | 0.03 | 0.05 | 0.05 | 91 | 1046.8 |
| 20260902185932 | 77 | 133 | 0.0 | 3.0 | 0.03 | 0.05 | 0.05 | 95 | 1046.8 |
| 20260902185421 | 75 | 157 | 0.0 | 1.0 | 0.03 | 0.05 | 0.05 | 95 | 1046.8 |
| 20260902184919 | 75 | 150 | 1.0 | 3.0 | 0.03 | 0.05 | 0.05 | 94 | 1047.2 |
| 20260902184640 | 75 | 150 | 1.0 | 3.0 | 0.03 | 0.05 | 0.05 | 93 | 1047.2 |
| 20260902183907 | 75 | 274 | 0.0 | 0.0 | 0.04 | 0.05 | 0.05 | 93 | 1047.2 |
| 20260902183401 | 75 | 275 | 0.0 | 0.0 | 0.04 | 0.05 | 0.05 | 93 | 1047.6 |
| 20260902182855 | 75 | 275 | 0.0 | 0.0 | 0.03 | 0.04 | 0.04 | 92 | 1047.6 |
| 20260902182612 | 76 | 274 | 0.0 | 1.0 | 0.03 | 0.04 | 0.04 | 91 | 1047.6 |
| 20260902181843 | 76 | 275 | 0.0 | 1.0 | 0.02 | 0.03 | 0.03 | 90 | 1047.6 |
| 20260902181337 | 76 | 9 | 0.0 | 1.0 | 0.01 | 0.02 | 0.02 | 89 | 1047.6 |
| 20260902180826 | 77 | 236 | 0.0 | 0.0 | 0.01 | 0.02 | 0.02 | 89 | 1046.6 |
| 20260902180325 | 78 | 236 | 0.0 | 2.0 | 0.01 | 0.02 | 0.02 | 87 | 1046.6 |
| 20260902180300 | 78 | 229 | 1.0 | 3.0 | 0.01 | 0.02 | 0.02 | 84 | 1046.6 |
| 20260902175313 | 79 | 170 | 1.0 | 7.0 | 0.01 | 0.02 | 0.02 | 83 | 1046.8 |
| 20260902174807 | 81 | 350 | 2.0 | 7.0 | 0.01 | 0.02 | 0.02 | 80 | 1046.8 |
| 20260902174301 | 85 | 299 | 3.0 | 11.0 | 0.00 | 0.01 | 0.02 | 74 | 1046.8 |
| 20260902173756 | 87 | 207 | 3.0 | 14.0 | 0.00 | 0.01 | 0.01 | 69 | 1047.1 |
| 20260902173245 | 88 | 56 | 4.0 | 14.0 | 0.00 | 0.01 | 0.01 | 69 | 1047.1 |
| 20260902172743 | 89 | 312 | 4.0 | 13.0 | 0.00 | 0.01 | 0.01 | 70 | 1047.1 |
| 20260902172504 | 89 | 267 | 4.0 | 13.0 | 0.00 | 0.01 | 0.01 | 71 | 1046.9 |
| 20260902171731 | 90 | 136 | 3.0 | 11.0 | 0.00 | 0.01 | 0.01 | 71 | 1046.9 |
| 20260902171225 | 91 | 263 | 3.0 | 9.0 | 0.00 | 0.01 | 0.01 | 72 | 1046.9 |
| 20260902170947 | 92 | 192 | 2.0 | 9.0 | 0.00 | 0.01 | 0.01 | 69 | 1046.6 |
| 20260902170214 | 94 | 303 | 1.0 | 6.0 | 0.00 | 0.01 | 0.01 | 66 | 1046.6 |
| 20260902165708 | 94 | 84 | 1.0 | 4.0 | 0.00 | 0.01 | 0.01 | 65 | 1046.6 |
| 20260902165201 | 93 | 147 | 2.0 | 6.0 | 0.00 | 0.01 | 0.01 | 65 | 1046.8 |
| 20260902164656 | 93 | 200 | 1.0 | 6.0 | 0.00 | 0.01 | 0.01 | 66 | 1046.8 |
| 20260902164149 | 92 | 67 | 1.0 | 3.0 | 0.00 | 0.01 | 0.01 | 67 | 1046.8 |
| 20260902163644 | 91 | 88 | 1.0 | 3.0 | 0.00 | 0.01 | 0.01 | 71 | 1047.0 |
| 20260902163137 | 91 | 84 | 1.0 | 3.0 | 0.00 | 0.01 | 0.01 | 68 | 1047.0 |
| 20260902162631 | 91 | 239 | 1.0 | 3.0 | 0.00 | 0.01 | 0.01 | 68 | 1047.0 |
| 20260902162346 | 91 | 157 | 1.0 | 3.0 | 0.00 | 0.01 | 0.01 | 69 | 1047.1 |
| 20260902161619 | 91 | 300 | 1.0 | 4.0 | 0.00 | 0.01 | 0.01 | 68 | 1047.1 |
| 20260902161114 | 91 | 236 | 2.0 | 6.0 | 0.00 | 0.01 | 0.01 | 68 | 1047.1 |
| 20260902160607 | 92 | 265 | 2.0 | 6.0 | 0.00 | 0.01 | 0.01 | 67 | 1047.0 |
| 20260902160325 | 92 | 265 | 2.0 | 6.0 | 0.00 | 0.01 | 0.01 | 67 | 1047.0 |
| 20260902155555 | 92 | 246 | 2.0 | 6.0 | 0.00 | 0.01 | 0.01 | 68 | 1047.0 |
| 20260902155050 | 91 | 217 | 2.0 | 8.0 | 0.00 | 0.01 | 0.01 | 68 | 1046.9 |
| 20260902154540 | 91 | 240 | 1.0 | 8.0 | 0.00 | 0.01 | 0.01 | 68 | 1046.9 |
| 20260902154037 | 90 | 263 | 1.0 | 3.0 | 0.00 | 0.01 | 0.01 | 70 | 1046.9 |
| 20260902153531 | 89 | 276 | 2.0 | 5.0 | 0.00 | 0.01 | 0.01 | 71 | 1046.7 |
| 20260902153025 | 89 | 15 | 2.0 | 5.0 | 0.00 | 0.01 | 0.01 | 71 | 1046.7 |
| 20260902152748 | 89 | 57 | 1.0 | 3.0 | 0.00 | 0.01 | 0.01 | 72 | 1046.7 |
| 20260902152010 | 88 | 107 | 1.0 | 3.0 | 0.00 | 0.01 | 0.01 | 71 | 1046.9 |
| 20260902151507 | 88 | 173 | 0.0 | 1.0 | 0.00 | 0.01 | 0.01 | 74 | 1046.9 |
| 20260902151000 | 88 | 159 | 0.0 | 2.0 | 0.00 | 0.01 | 0.01 | 75 | 1046.9 |
| 20260902150452 | 88 | 159 | 1.0 | 3.0 | 0.00 | 0.01 | 0.01 | 73 | 1046.7 |
| 20260902145949 | 87 | 244 | 2.0 | 3.0 | 0.00 | 0.01 | 0.01 | 73 | 1046.7 |
| 20260902145447 | 87 | 132 | 1.0 | 3.0 | 0.00 | 0.01 | 0.01 | 73 | 1046.7 |
| 20260902144945 | 87 | 140 | 0.0 | 2.0 | 0.00 | 0.01 | 0.01 | 75 | 1046.7 |
| 20260902144443 | 87 | 135 | 0.0 | 1.0 | 0.00 | 0.01 | 0.01 | 74 | 1046.7 |
| 20260902143945 | 87 | 171 | 0.0 | 2.0 | 0.00 | 0.01 | 0.01 | 75 | 1046.7 |